Wind_Speed
6 7 7 7 6 6 5 5 4 2 2 1 1 2 3 3 4 6 6 6 7 7 5 4 1 3 8 7 9 10 5 6 4 4 5 4 6 4 4 7 13 13 10 12 13
8 8 8 8 8 8 7 6 5 3 2 2 1 1 1 3 2 5 5 7 8 7 7 4 6 6 11 9 8 6 3 0 3 3 6 7 5 4 8 10 14 17 17 17 18
9 9 9 9 10 10 9 8 7 6 3 1 1 1 2 2 3 5 7 8 7 6 5 4 8 10 11 9 6 4 3 2 2 2 3 5 5 10 8 14 18 19 21 23 18
9 9 9 10 10 10 10 10 10 9 6 3 2 2 3 4 4 7 8 8 8 6 5 5 9 12 9 9 7 5 4 2 4 4 6 6 5 9 10 12 13 16 18 20 21
9 9 9 10 10 10 10 11 11 10 9 7 5 4 4 5 7 8 9 8 9 7 10 9 9 9 6 6 5 6 7 8 6 8 16 11 11 10 13 13 16 19 20 21 25
8 9 9 9 9 10 10 10 11 10 9 9 8 7 6 7 9 12 10 10 10 12 13 13 11 10 9 10 7 8 10 11 14 18 22 16 9 10 14 16 19 26 27 28 29
7 7 7 8 8 9 10 9 9 9 9 8 8 8 11 13 11 11 11 11 13 13 12 11 8 7 7 9 11 12 10 9 12 16 19 17 12 8 9 12 21 25 28 32 37
5 5 5 6 7 8 8 8 8 9 8 8 8 11 7 11 11 10 11 13 10 9 11 8 8 6 10 10 7 6 2 1 12 17 23 26 9 7 7 8 16 26 31 36 40
4 4 5 6 7 7 8 9 8 8 8 7 5 7 8 11 13 12 12 10 8 6 6 6 7 13 7 5 3 3 11 10 11 16 18 24 29 25 15 22 24 29 30 29 30
4 5 6 6 6 7 8 8 9 8 7 7 6 7 9 13 14 13 10 9 6 7 7 6 10 9 8 8 4 7 12 14 15 18 27 29 31 21 12 18 25 29 31 30 27
5 7 9 8 8 8 8 8 7 10 9 10 11 12 15 12 10 9 9 8 8 9 6 5 5 14 14 13 12 14 15 17 24 20 31 30 21 23 20 18 20 23 25 21 17
8 10 10 9 9 8 8 7 7 9 13 15 13 10 9 7 9 11 10 8 8 7 6 5 12 11 8 8 13 17 14 20 25 30 26 20 26 11 8 10 18 19 19 20 19
10 10 9 8 8 9 7 7 8 10 13 12 11 9 7 5 4 9 9 11 10 8 4 2 10 6 7 14 21 23 18 28 34 32 10 16 6 6 14 8 12 12 11 13 17
11 10 9 9 9 8 8 8 7 7 7 10 7 7 9 10 5 12 12 11 9 7 6 3 11 11 9 19 25 24 27 33 28 24 7 20 7 9 1 6 5 7 14 20 25
11 11 10 10 9 9 8 7 5 6 4 5 8 9 10 11 10 14 14 12 9 7 7 10 11 14 14 25 29 23 34 36 20 18 13 9 4 2 5 1 10 20 27 30 34
8 9 9 10 10 9 7 7 7 3 5 5 6 10 11 9 13 14 15 16 8 6 14 15 12 13 18 23 27 30 31 12 10 6 4 8 18 4 9 21 24 23 24 27 28
6 7 8 8 7 8 7 6 4 7 2 4 8 10 9 13 14 16 17 15 16 10 19 12 14 14 15 28 17 20 33 13 6 4 4 15 20 7 8 17 32 33 35 32 31
4 5 6 6 8 7 6 5 5 3 2 4 7 5 10 14 13 15 17 9 15 18 10 13 7 16 23 27 22 19 20 6 5 4 20 29 4 10 8 29 31 34 29 32 28
4 5 6 7 7 6 6 5 4 4 4 4 5 5 8 12 10 15 16 12 16 19 15 10 6 13 14 22 18 15 14 8 9 12 10 8 5 18 37 40 36 44 42 39 33
5 5 5 7 8 8 5 10 7 5 4 6 5 2 7 10 9 14 13 10 10 17 19 13 9 11 23 10 16 12 12 8 5 5 6 13 26 15 41 36 42 51 45 46 39
4 5 6 7 9 7 10 12 7 5 4 4 4 5 6 9 12 12 7 10 11 16 22 18 14 13 18 12 13 11 10 9 12 13 4 5 11 37 25 40 44 45 44 43 39
5 3 5 6 4 6 10 8 6 4 4 4 5 5 7 9 9 7 8 8 15 17 16 17 9 16 14 6 4 14 28 20 15 9 23 25 31 14 36 40 46 47 39 34 36
4 4 3 4 3 6 7 6 5 5 5 5 5 7 9 8 7 8 9 13 14 18 15 15 8 12 5 5 14 29 16 22 19 18 23 13 15 39 41 50 49 45 44 46 44
4 3 2 2 4 4 5 4 5 5 5 6 7 7 9 9 9 9 13 11 17 20 19 17 10 6 6 18 24 26 22 12 14 13 23 21 41 43 48 41 52 48 46 40 38
3 4 2 1 3 4 5 6 6 6 6 7 7 9 9 8 10 10 13 17 18 17 19 18 6 11 21 12 14 15 12 15 18 19 22 34 37 43 39 48 47 43 46 40 36
3 2 2 2 2 3 5 5 6 7 8 9 9 11 11 11 11 12 14 14 15 18 18 16 10 22 12 3 18 10 13 14 18 26 29 41 38 33 43 44 47 42 36 39 32
6 5 4 5 5 5 5 6 6 9 9 11 13 14 12 13 13 13 14 15 13 10 12 13 20 20 7 20 7 6 12 19 24 34 41 25 30 45 51 46 45 37 35 38 37
Wind_Direction
11 12 8 7 360 348 340 336 338 343 345 356 359 14 35 45 51 74 79 62 47 40 36 25 114 139 108 106 110 132 92 118 141 253 247 299 280 318 153 262 287 297 259 261 274
35 31 29 29 26 23 17 6 357 351 341 337 338 0 36 53 54 82 70 48 35 36 52 61 72 79 76 88 125 150 85 162 284 281 264 291 283 274 197 224 258 276 282 280 279
37 34 33 35 38 38 38 35 35 32 39 17 352 335 345 27 61 52 51 40 43 53 68 85 90 84 86 78 106 91 47 17 19 353 305 294 287 285 264 245 253 265 272 281 285
36 36 37 41 44 46 44 48 46 49 55 65 70 38 27 25 50 50 50 49 44 51 64 64 88 93 79 84 86 66 49 348 350 358 349 323 313 293 291 294 297 289 287 288 290
35 37 41 46 47 49 54 57 58 54 56 61 55 47 65 70 77 71 69 72 72 58 72 67 74 76 77 79 65 24 24 21 31 6 353 340 326 304 304 309 304 295 292 289 289
33 37 42 48 50 53 56 58 55 54 59 59 55 53 70 75 76 85 81 80 73 71 70 70 63 69 82 74 44 32 55 18 12 345 347 355 326 305 318 322 302 298 301 299 296
29 35 38 47 52 54 54 56 58 58 66 67 62 72 73 86 78 75 68 75 83 75 62 57 55 49 65 80 81 54 36 351 357 325 328 342 334 326 319 317 299 297 287 288 293
25 37 43 50 53 53 52 54 58 56 65 68 78 83 79 79 78 76 86 86 69 50 45 36 33 46 60 109 82 97 54 334 316 317 324 337 343 1 303 294 284 286 287 289 294
24 45 62 56 57 54 56 52 49 55 58 63 71 87 74 80 89 86 76 53 36 42 37 26 63 49 35 136 109 263 314 343 335 316 312 307 308 315 299 259 281 295 291 286 288
34 59 75 65 56 54 48 41 55 52 49 35 46 65 79 96 97 77 50 27 18 30 46 47 46 32 48 105 76 354 346 339 331 320 316 318 314 323 314 271 276 279 276 278 283
64 74 72 67 57 52 51 40 54 58 54 70 72 85 95 82 72 51 28 9 21 36 59 83 21 26 42 39 19 349 332 321 338 321 315 325 316 319 303 275 269 267 261 257 253
75 71 64 57 53 49 52 60 64 67 75 80 79 80 81 65 44 13 14 14 17 20 14 53 21 32 40 23 356 344 338 337 336 326 319 327 336 357 342 284 261 258 255 256 260
60 62 59 60 54 52 56 58 62 80 84 81 77 64 53 32 15 18 20 8 2 9 59 81 11 16 359 358 350 352 345 334 327 325 343 325 347 38 333 253 260 259 267 277 300
53 54 57 59 58 59 62 61 68 91 85 55 49 28 19 7 17 21 8 8 8 27 32 40 8 355 358 351 351 349 335 333 329 325 334 346 293 327 95 235 235 279 294 301 306
52 52 54 62 62 64 63 64 74 89 62 23 21 14 17 21 18 9 14 12 24 27 31 356 355 349 350 355 347 334 335 338 326 309 307 354 323 172 195 32 313 322 325 325 327
49 52 59 66 68 68 69 91 90 74 62 19 24 359 11 31 9 19 9 5 21 20 4 353 354 349 350 351 348 335 337 341 312 297 159 359 350 334 45 21 357 346 349 342 334
46 51 61 66 73 71 83 102 83 65 64 2 3 8 20 14 12 2 7 13 31 19 1 359 344 344 349 344 355 354 360 348 3 355 255 305 328 103 71 358 354 347 340 336 330
62 58 69 71 71 76 83 76 78 81 74 28 20 26 19 9 353 2 2 34 23 19 6 359 350 333 342 349 352 11 19 40 307 322 300 320 186 147 312 331 355 354 341 339 332
74 72 73 73 68 61 57 67 86 81 53 30 16 24 353 355 356 350 360 13 9 7 11 352 333 312 345 343 353 347 16 344 281 291 286 283 179 263 303 318 330 333 329 339 335
89 92 79 73 59 43 51 75 99 74 28 2 8 356 329 351 348 356 5 357 7 360 352 333 323 343 345 353 350 358 360 335 350 319 305 287 308 311 326 328 325 324 326 325 318
116 110 90 68 55 48 66 93 79 42 13 1 356 338 349 347 351 350 1 339 341 347 345 346 335 349 349 333 329 335 8 351 314 294 286 301 299 315 327 326 331 329 328 325 327
131 139 91 68 72 56 70 61 38 41 13 353 341 347 341 347 339 343 330 333 333 342 350 346 326 335 339 355 357 348 343 347 329 298 292 282 297 300 321 328 328 335 336 333 331
139 114 95 67 64 69 59 49 44 14 358 350 339 338 344 344 339 315 325 334 333 337 343 351 334 328 330 317 308 327 338 335 322 317 295 314 295 319 323 326 326 331 330 328 331
148 141 102 89 97 42 38 33 11 5 354 343 329 335 336 329 329 313 328 332 331 331 341 351 350 345 286 299 303 308 329 332 341 342 322 318 317 322 322 331 336 336 334 331 333
113 133 130 48 16 5 6 6 2 350 343 333 326 330 324 325 323 335 334 325 327 329 339 346 350 326 320 289 310 312 331 333 339 337 331 324 317 318 330 328 335 329 331 332 335
63 78 86 63 20 3 358 0 351 342 333 324 326 321 330 329 330 328 325 323 318 326 331 340 334 332 320 321 323 336 348 353 340 334 327 327 321 328 330 332 334 331 334 333 336
57 62 74 77 48 29 0 351 338 335 330 324 324 322 326 324 324 323 317 316 320 322 332 336 341 341 302 331 325 58 360 347 338 337 334 333 327 323 331 335 337 338 339 335 340
Height
3170 3170 3169 3168 3167 3167 3166 3166 3167 3167 3167 3167 3167 3167 3168 3168 3168 3169 3170 3170 3170 3169 3169 3169 3169 3169 3168 3168 3169 3169 3171 3171 3172 3173 3172 3174 3173 3173 3173 3171 3170 3171 3171 3171 3169
3171 3170 3170 3169 3168 3167 3166 3166 3166 3166 3166 3167 3167 3167 3167 3168 3168 3169 3169 3169 3169 3169 3169 3169 3168 3168 3167 3168 3169 3169 3171 3171 3172 3172 3172 3172 3172 3171 3172 3169 3168 3167 3167 3166 3166
3172 3171 3170 3169 3169 3168 3167 3166 3166 3166 3166 3166 3166 3166 3167 3168 3168 3168 3168 3168 3168 3168 3168 3168 3167 3167 3168 3169 3170 3170 3171 3171 3172 3171 3171 3170 3170 3168 3169 3168 3167 3166 3164 3161 3162
3173 3172 3171 3170 3170 3169 3168 3168 3167 3166 3166 3166 3166 3166 3167 3168 3170 3168 3168 3168 3168 3168 3168 3168 3167 3167 3169 3170 3170 3170 3171 3170 3170 3170 3170 3169 3168 3167 3166 3166 3164 3162 3160 3157 3156
3174 3173 3172 3172 3171 3170 3169 3169 3168 3168 3167 3167 3167 3167 3168 3168 3168 3169 3169 3169 3170 3171 3169 3169 3168 3168 3169 3170 3170 3170 3170 3170 3170 3169 3169 3167 3165 3163 3161 3162 3160 3157 3156 3154 3151
3175 3174 3173 3173 3173 3172 3171 3171 3170 3169 3168 3168 3168 3168 3169 3170 3170 3169 3171 3171 3171 3171 3171 3171 3170 3170 3170 3170 3171 3171 3171 3169 3168 3165 3165 3164 3162 3160 3159 3158 3156 3151 3149 3146 3144
3175 3175 3174 3174 3174 3173 3173 3172 3172 3171 3170 3170 3170 3171 3171 3172 3173 3173 3173 3173 3173 3172 3172 3171 3171 3171 3170 3170 3170 3171 3170 3168 3167 3165 3164 3163 3160 3158 3157 3157 3151 3146 3143 3140 3138
3175 3175 3175 3174 3174 3174 3173 3173 3173 3172 3172 3172 3172 3172 3173 3173 3174 3175 3175 3174 3175 3173 3172 3171 3171 3171 3170 3170 3170 3169 3169 3167 3166 3163 3161 3160 3160 3159 3157 3154 3150 3144 3139 3134 3130
3175 3175 3175 3175 3175 3174 3174 3174 3174 3173 3173 3173 3174 3174 3174 3175 3175 3176 3176 3177 3176 3174 3171 3170 3171 3170 3171 3169 3169 3169 3168 3167 3165 3163 3159 3158 3155 3156 3154 3150 3146 3142 3137 3131 3126
3176 3175 3175 3175 3175 3175 3175 3175 3175 3174 3174 3174 3174 3177 3177 3177 3177 3176 3177 3176 3174 3172 3172 3171 3170 3169 3169 3168 3169 3168 3165 3163 3161 3159 3154 3150 3148 3146 3145 3144 3143 3138 3134 3129 3123
3176 3176 3175 3175 3175 3175 3175 3176 3178 3177 3175 3175 3176 3176 3178 3179 3178 3177 3176 3175 3173 3172 3170 3170 3172 3169 3169 3169 3168 3166 3163 3161 3159 3155 3146 3144 3140 3138 3136 3135 3132 3130 3125 3121 3119
3177 3176 3176 3176 3176 3176 3176 3176 3176 3178 3176 3177 3178 3179 3179 3179 3179 3178 3177 3176 3173 3172 3171 3172 3170 3170 3170 3169 3168 3165 3162 3159 3155 3150 3144 3140 3135 3133 3132 3131 3127 3123 3120 3117 3112
3177 3177 3176 3176 3176 3176 3176 3177 3176 3177 3178 3180 3180 3181 3181 3181 3179 3178 3177 3176 3174 3171 3170 3172 3173 3170 3169 3168 3165 3163 3159 3155 3151 3143 3143 3139 3137 3136 3134 3129 3126 3121 3118 3114 3110
3178 3178 3177 3177 3179 3177 3177 3177 3177 3178 3179 3184 3182 3181 3181 3180 3181 3179 3176 3177 3173 3173 3172 3172 3172 3171 3169 3167 3163 3159 3158 3152 3145 3141 3142 3141 3137 3134 3131 3125 3121 3118 3116 3112 3108
3179 3179 3178 3177 3177 3177 3178 3177 3178 3178 3181 3186 3184 3183 3182 3182 3182 3179 3177 3175 3175 3175 3175 3175 3173 3171 3170 3167 3162 3159 3151 3145 3140 3138 3138 3140 3138 3134 3129 3126 3123 3120 3115 3110 3105
3180 3179 3179 3179 3178 3178 3178 3178 3179 3182 3185 3187 3185 3184 3183 3182 3180 3180 3177 3176 3175 3174 3175 3174 3173 3172 3171 3168 3161 3154 3148 3140 3136 3136 3136 3135 3137 3133 3131 3131 3125 3119 3114 3109 3103
3180 3180 3179 3179 3179 3178 3178 3179 3181 3180 3188 3188 3185 3183 3182 3182 3181 3178 3175 3173 3174 3175 3174 3173 3172 3171 3169 3165 3161 3154 3146 3139 3138 3138 3136 3133 3133 3133 3130 3125 3120 3113 3108 3104 3099
3179 3179 3179 3179 3178 3178 3179 3181 3180 3185 3184 3185 3184 3183 3183 3181 3179 3178 3178 3176 3175 3175 3172 3170 3168 3169 3167 3163 3161 3157 3155 3160 3159 3151 3139 3132 3131 3131 3127 3123 3117 3111 3107 3102 3096
3179 3179 3179 3179 3178 3179 3180 3180 3183 3184 3185 3185 3185 3183 3183 3182 3182 3178 3177 3175 3174 3174 3176 3170 3170 3166 3166 3162 3162 3159 3158 3158 3154 3147 3140 3129 3126 3121 3120 3111 3107 3104 3099 3094 3089
3178 3179 3179 3178 3179 3180 3181 3181 3183 3184 3185 3184 3184 3184 3184 3182 3182 3180 3179 3180 3179 3179 3174 3168 3166 3165 3164 3162 3160 3157 3157 3155 3155 3151 3144 3125 3123 3120 3112 3108 3104 3097 3093 3089 3082
3178 3179 3179 3178 3179 3181 3180 3182 3183 3183 3184 3185 3183 3183 3183 3182 3181 3181 3179 3177 3176 3176 3176 3174 3170 3166 3162 3160 3157 3157 3155 3156 3156 3152 3144 3132 3123 3126 3116 3110 3101 3096 3090 3083 3077
3176 3178 3178 3179 3182 3180 3180 3181 3183 3183 3183 3183 3183 3182 3182 3181 3179 3178 3179 3179 3176 3172 3168 3171 3171 3166 3160 3158 3158 3157 3157 3153 3151 3148 3144 3137 3122 3117 3112 3107 3102 3093 3084 3078 3072
3175 3176 3178 3179 3179 3180 3180 3181 3181 3182 3182 3182 3182 3182 3182 3181 3180 3178 3177 3177 3176 3174 3171 3167 3165 3166 3163 3163 3156 3152 3152 3148 3146 3142 3138 3137 3121 3116 3108 3100 3093 3085 3078 3072 3065
3175 3175 3176 3177 3178 3179 3179 3180 3181 3181 3180 3180 3181 3180 3179 3180 3178 3176 3175 3174 3172 3170 3169 3166 3165 3166 3167 3160 3152 3148 3144 3141 3138 3136 3130 3127 3115 3107 3101 3094 3086 3078 3072 3066 3060
3173 3174 3175 3176 3176 3177 3179 3179 3179 3180 3180 3179 3179 3180 3179 3177 3175 3175 3174 3169 3169 3167 3163 3165 3162 3161 3160 3155 3150 3146 3141 3137 3136 3134 3130 3122 3115 3106 3098 3091 3081 3075 3067 3060 3055
3172 3173 3174 3175 3176 3176 3176 3177 3178 3178 3178 3178 3178 3178 3178 3177 3176 3174 3172 3170 3168 3167 3162 3159 3158 3153 3152 3149 3146 3141 3139 3136 3135 3132 3127 3118 3110 3104 3096 3089 3078 3070 3063 3057 3051
3170 3171 3172 3174 3174 3175 3177 3176 3175 3176 3174 3174 3174 3175 3175 3175 3173 3170 3168 3168 3166 3161 3160 3159 3157 3149 3146 3145 3141 3142 3141 3137 3133 3130 3123 3114 3109 3100 3089 3082 3074 3066 3061 3054 3048